Time,TemperatureF,DewpointF,PressureIn,WindDirection,WindDirectionDegrees,WindSpeedMPH,WindSpeedGustMPH,Humidity,HourlyPrecipIn,Conditions,Clouds,dailyrainin,SoftwareType,DateUTC
2013-02-23 00:01:00,48.0,30.0,-100.00,North,-999,-999.0,-999.0,49,-99.99,,,-99.99,,2013-02-23 08:01:00,
2013-02-23 00:11:00,48.0,30.0,-100.00,North,-999,-999.0,-999.0,49,-99.99,,,-99.99,,2013-02-23 08:11:00,
2013-02-23 00:21:00,47.0,27.0,-100.00,NNE,14,-999.0,-999.0,45,-99.99,,,-99.99,,2013-02-23 08:21:00,
2013-02-23 00:31:00,47.0,27.0,-100.00,NNE,14,-999.0,-999.0,45,-99.99,,,-99.99,,2013-02-23 08:31:00,
2013-02-23 00:42:00,47.0,27.0,-100.00,NNE,14,-999.0,-999.0,45,-99.99,,,-99.99,,2013-02-23 08:42:00,
2013-02-23 00:52:00,47.0,21.0,-100.00,North,11,-999.0,-999.0,36,-99.99,,,-99.99,,2013-02-23 08:52:00,
2013-02-23 01:01:00,47.0,21.0,-100.00,North,11,-999.0,-999.0,36,-99.99,,,-99.99,,2013-02-23 09:01:00,
2013-02-23 01:11:00,47.0,21.0,-100.00,North,11,-999.0,-999.0,36,-99.99,,,-99.99,,2013-02-23 09:11:00,
2013-02-23 01:21:00,45.0,23.0,-100.00,NNE,25,3.0,-999.0,41,-99.99,,,-99.99,,2013-02-23 09:21:00,
2013-02-23 01:31:00,45.0,23.0,-100.00,NNE,25,3.0,-999.0,41,-99.99,,,-99.99,,2013-02-23 09:31:00,
2013-02-23 01:42:00,45.0,23.0,-100.00,NNE,25,3.0,-999.0,41,-99.99,,,-99.99,,2013-02-23 09:42:00,
2013-02-23 01:52:00,46.0,26.0,-100.00,NNE,21,-999.0,-999.0,45,-99.99,,,-99.99,,2013-02-23 09:52:00,
2013-02-23 02:01:00,46.0,26.0,-100.00,NNE,21,-999.0,-999.0,45,-99.99,,,-99.99,,2013-02-23 10:01:00,
2013-02-23 02:11:00,46.0,26.0,-100.00,NNE,21,-999.0,-999.0,45,-99.99,,,-99.99,,2013-02-23 10:11:00,
2013-02-23 02:21:00,46.0,24.0,-100.00,NNE,19,-999.0,-999.0,42,-99.99,,,-99.99,,2013-02-23 10:21:00,
2013-02-23 02:31:00,46.0,24.0,-100.00,NNE,19,-999.0,-999.0,42,-99.99,,,-99.99,,2013-02-23 10:31:00,
2013-02-23 02:42:00,46.0,24.0,-100.00,NNE,19,-999.0,-999.0,42,-99.99,,,-99.99,,2013-02-23 10:42:00,
2013-02-23 02:52:00,46.0,31.0,-100.00,North,6,-999.0,-999.0,56,-99.99,,,0.00,,2013-02-23 10:52:00,
2013-02-23 03:01:00,46.0,31.0,-100.00,North,6,-999.0,-999.0,56,-99.99,,,0.00,,2013-02-23 11:01:00,
2013-02-23 03:11:00,46.0,31.0,-100.00,North,6,-999.0,-999.0,56,-99.99,,,0.00,,2013-02-23 11:11:00,
2013-02-23 03:21:00,46.0,35.0,-100.00,North,0,-999.0,-999.0,64,-99.99,,,-99.99,,2013-02-23 11:21:00,
2013-02-23 03:32:00,46.0,35.0,-100.00,North,0,-999.0,-999.0,64,-99.99,,,-99.99,,2013-02-23 11:32:00,
2013-02-23 03:42:00,46.0,35.0,-100.00,North,0,-999.0,-999.0,64,-99.99,,,-99.99,,2013-02-23 11:42:00,
2013-02-23 03:52:00,46.0,35.0,-100.00,North,0,-999.0,-999.0,64,-99.99,,,-99.99,,2013-02-23 11:52:00,
2013-02-23 04:01:00,46.0,35.0,-100.00,North,0,-999.0,-999.0,64,-99.99,,,-99.99,,2013-02-23 12:01:00,
2013-02-23 04:22:00,45.0,36.0,-100.00,NNE,20,-999.0,-999.0,71,-99.99,,,-99.99,,2013-02-23 12:22:00,
2013-02-23 04:32:00,45.0,36.0,-100.00,NNE,20,-999.0,-999.0,71,-99.99,,,-99.99,,2013-02-23 12:32:00,
2013-02-23 04:42:00,45.0,36.0,-100.00,NNE,20,-999.0,-999.0,71,-99.99,,,-99.99,,2013-02-23 12:42:00,
2013-02-23 04:52:00,45.0,38.0,-100.00,NNE,27,-999.0,-999.0,75,-99.99,,,-99.99,,2013-02-23 12:52:00,
2013-02-23 05:01:00,45.0,38.0,-100.00,NNE,27,-999.0,-999.0,75,-99.99,,,-99.99,,2013-02-23 13:01:00,
2013-02-23 05:11:00,45.0,38.0,-100.00,NNE,27,-999.0,-999.0,75,-99.99,,,-99.99,,2013-02-23 13:11:00,
2013-02-23 05:22:00,45.0,37.0,-100.00,NNE,19,-999.0,-999.0,73,-99.99,,,-99.99,,2013-02-23 13:22:00,
2013-02-23 05:31:00,45.0,37.0,-100.00,NNE,19,-999.0,-999.0,73,-99.99,,,-99.99,,2013-02-23 13:31:00,
2013-02-23 05:42:00,45.0,37.0,-100.00,NNE,19,-999.0,-999.0,73,-99.99,,,-99.99,,2013-02-23 13:42:00,
2013-02-23 05:52:00,44.0,34.0,-100.00,NNE,21,-999.0,-999.0,68,-99.99,,,-99.99,,2013-02-23 13:52:00,
2013-02-23 06:01:00,44.0,34.0,-100.00,NNE,21,-999.0,-999.0,68,-99.99,,,-99.99,,2013-02-23 14:01:00,
2013-02-23 06:11:00,44.0,34.0,-100.00,NNE,21,-999.0,-999.0,68,-99.99,,,-99.99,,2013-02-23 14:11:00,
2013-02-23 06:21:00,45.0,36.0,-100.00,North,2,-999.0,-999.0,70,-99.99,,,-99.99,,2013-02-23 14:21:00,
2013-02-23 06:32:00,45.0,36.0,-100.00,North,2,-999.0,-999.0,70,-99.99,,,-99.99,,2013-02-23 14:32:00,
2013-02-23 06:42:00,45.0,36.0,-100.00,North,2,-999.0,-999.0,70,-99.99,,,-99.99,,2013-02-23 14:42:00,
2013-02-23 06:52:00,45.0,34.0,-100.00,NNE,18,-999.0,-999.0,64,-99.99,,,-99.99,,2013-02-23 14:52:00,
2013-02-23 07:01:00,45.0,34.0,-100.00,NNE,18,-999.0,-999.0,64,-99.99,,,-99.99,,2013-02-23 15:01:00,
2013-02-23 07:11:00,45.0,34.0,-100.00,NNE,18,-999.0,-999.0,64,-99.99,,,-99.99,,2013-02-23 15:11:00,
2013-02-23 07:21:00,44.0,34.0,-100.00,NNE,24,-999.0,-999.0,69,-99.99,,,-99.99,,2013-02-23 15:21:00,
2013-02-23 07:31:00,44.0,34.0,-100.00,NNE,24,-999.0,-999.0,69,-99.99,,,-99.99,,2013-02-23 15:31:00,
2013-02-23 07:42:00,44.0,34.0,-100.00,NNE,24,-999.0,-999.0,69,-99.99,,,-99.99,,2013-02-23 15:42:00,
2013-02-23 07:52:00,49.0,37.0,-100.00,NNE,28,-999.0,-999.0,63,-99.99,,,-99.99,,2013-02-23 15:52:00,
2013-02-23 08:01:00,49.0,37.0,-100.00,NNE,28,-999.0,-999.0,63,-99.99,,,-99.99,,2013-02-23 16:01:00,
2013-02-23 08:21:00,49.0,37.0,-100.00,NNE,28,-999.0,-999.0,63,-99.99,,,-99.99,,2013-02-23 16:21:00,
2013-02-23 08:31:00,49.0,37.0,-100.00,NNE,28,-999.0,-999.0,63,-99.99,,,-99.99,,2013-02-23 16:31:00,
2013-02-23 08:52:00,56.0,39.0,-100.00,NE,49,-999.0,-999.0,52,-99.99,,,-99.99,,2013-02-23 16:52:00,
2013-02-23 09:01:00,56.0,39.0,-100.00,NE,49,-999.0,-999.0,52,-99.99,,,-99.99,,2013-02-23 17:01:00,
2013-02-23 09:21:00,60.0,38.0,-100.00,South,176,-999.0,-999.0,44,-99.99,,,-99.99,,2013-02-23 17:21:00,
2013-02-23 09:31:00,60.0,38.0,-100.00,South,176,-999.0,-999.0,44,-99.99,,,-99.99,,2013-02-23 17:31:00,
2013-02-23 09:42:00,60.0,38.0,-100.00,South,176,-999.0,-999.0,44,-99.99,,,-99.99,,2013-02-23 17:42:00,
2013-02-23 09:52:00,60.0,38.0,-100.00,South,176,-999.0,-999.0,44,-99.99,,,-99.99,,2013-02-23 17:52:00,
2013-02-23 10:01:00,60.0,38.0,-100.00,South,176,-999.0,-999.0,44,-99.99,,,-99.99,,2013-02-23 18:01:00,
2013-02-23 10:52:00,60.0,42.0,-100.00,SW,221,-999.0,-999.0,52,-99.99,,,-99.99,,2013-02-23 18:52:00,
2013-02-23 11:01:00,60.0,42.0,-100.00,SW,221,-999.0,-999.0,52,-99.99,,,-99.99,,2013-02-23 19:01:00,
2013-02-23 11:11:00,60.0,42.0,-100.00,SW,221,-999.0,-999.0,52,-99.99,,,-99.99,,2013-02-23 19:11:00,
2013-02-23 11:21:00,60.0,41.0,-100.00,SSE,162,-999.0,-999.0,50,-99.99,,,-99.99,,2013-02-23 19:21:00,
2013-02-23 11:32:00,60.0,41.0,-100.00,SSE,162,-999.0,-999.0,50,-99.99,,,-99.99,,2013-02-23 19:32:00,
2013-02-23 11:42:00,60.0,41.0,-100.00,SSE,162,-999.0,-999.0,50,-99.99,,,-99.99,,2013-02-23 19:42:00,
2013-02-23 11:52:00,58.0,47.0,-100.00,SSE,163,-999.0,-999.0,68,-99.99,,,-99.99,,2013-02-23 19:52:00,
2013-02-23 12:01:00,58.0,47.0,-100.00,SSE,163,-999.0,-999.0,68,-99.99,,,-99.99,,2013-02-23 20:01:00,
2013-02-23 12:11:00,58.0,47.0,-100.00,SSE,163,-999.0,-999.0,68,-99.99,,,-99.99,,2013-02-23 20:11:00,
2013-02-23 12:21:00,58.0,45.0,-100.00,SW,221,-999.0,-999.0,63,-99.99,,,-99.99,,2013-02-23 20:21:00,
2013-02-23 12:31:00,58.0,45.0,-100.00,SW,221,-999.0,-999.0,63,-99.99,,,-99.99,,2013-02-23 20:31:00,
2013-02-23 12:42:00,58.0,45.0,-100.00,SW,221,-999.0,-999.0,63,-99.99,,,-99.99,,2013-02-23 20:42:00,
2013-02-23 12:52:00,58.0,45.0,-100.00,SW,214,-999.0,-999.0,62,-99.99,,,-99.99,,2013-02-23 20:52:00,
2013-02-23 13:01:00,58.0,45.0,-100.00,SW,214,-999.0,-999.0,62,-99.99,,,-99.99,,2013-02-23 21:01:00,
2013-02-23 13:11:00,58.0,45.0,-100.00,SW,214,-999.0,-999.0,62,-99.99,,,-99.99,,2013-02-23 21:11:00,
2013-02-23 13:22:00,60.0,47.0,-100.00,South,187,-999.0,-999.0,61,-99.99,,,-99.99,,2013-02-23 21:22:00,
2013-02-23 13:31:00,60.0,47.0,-100.00,South,187,-999.0,-999.0,61,-99.99,,,-99.99,,2013-02-23 21:31:00,
2013-02-23 13:42:00,60.0,47.0,-100.00,South,187,-999.0,-999.0,61,-99.99,,,-99.99,,2013-02-23 21:42:00,
2013-02-23 13:52:00,57.0,45.0,-100.00,West,278,-999.0,-999.0,64,-99.99,,,-99.99,,2013-02-23 21:52:00,
2013-02-23 14:01:00,57.0,45.0,-100.00,West,278,-999.0,-999.0,64,-99.99,,,-99.99,,2013-02-23 22:01:00,
2013-02-23 14:11:00,57.0,45.0,-100.00,West,278,-999.0,-999.0,64,-99.99,,,-99.99,,2013-02-23 22:11:00,
2013-02-23 14:21:00,55.0,50.0,-100.00,West,263,-999.0,-999.0,82,-99.99,,,-99.99,,2013-02-23 22:21:00,
2013-02-23 14:31:00,55.0,50.0,-100.00,West,263,-999.0,-999.0,82,-99.99,,,-99.99,,2013-02-23 22:31:00,
2013-02-23 14:42:00,55.0,50.0,-100.00,West,263,-999.0,-999.0,82,-99.99,,,-99.99,,2013-02-23 22:42:00,
2013-02-23 14:52:00,55.0,49.0,-100.00,WNW,290,-999.0,-999.0,81,-99.99,,,0.00,,2013-02-23 22:52:00,
2013-02-23 15:01:00,55.0,49.0,-100.00,WNW,290,-999.0,-999.0,81,-99.99,,,0.00,,2013-02-23 23:01:00,
2013-02-23 15:11:00,55.0,49.0,-100.00,WNW,290,-999.0,-999.0,81,-99.99,,,0.00,,2013-02-23 23:11:00,
2013-02-23 15:21:00,57.0,50.0,-100.00,SSW,201,-999.0,-999.0,78,-99.99,,,-99.99,,2013-02-23 23:21:00,
2013-02-23 15:31:00,57.0,50.0,-100.00,SSW,201,-999.0,-999.0,78,-99.99,,,-99.99,,2013-02-23 23:31:00,
2013-02-23 15:42:00,57.0,50.0,-100.00,SSW,201,-999.0,-999.0,78,-99.99,,,-99.99,,2013-02-23 23:42:00,
2013-02-23 15:52:00,55.0,50.0,-100.00,WSW,248,-999.0,-999.0,82,-99.99,,,-99.99,,2013-02-23 23:52:00,
2013-02-23 16:01:00,55.0,50.0,-100.00,WSW,248,-999.0,-999.0,82,-99.99,,,-99.99,,2013-02-24 00:01:00,
2013-02-23 16:11:00,55.0,50.0,-100.00,WSW,248,-999.0,-999.0,82,-99.99,,,-99.99,,2013-02-24 00:11:00,
2013-02-23 16:22:00,55.0,50.0,-100.00,WSW,248,-999.0,-999.0,82,-99.99,,,-99.99,,2013-02-24 00:22:00,
2013-02-23 16:31:00,55.0,50.0,-100.00,WSW,248,-999.0,-999.0,82,-99.99,,,-99.99,,2013-02-24 00:31:00,
2013-02-23 18:52:00,47.0,45.0,-100.00,West,270,-999.0,-999.0,92,-99.99,,,-99.99,,2013-02-24 02:52:00,
2013-02-23 19:01:00,47.0,45.0,-100.00,West,270,-999.0,-999.0,92,-99.99,,,-99.99,,2013-02-24 03:01:00,
2013-02-23 19:11:00,47.0,45.0,-100.00,West,270,-999.0,-999.0,92,-99.99,,,-99.99,,2013-02-24 03:11:00,
2013-02-23 19:21:00,53.0,45.0,-100.00,NNE,16,-999.0,-999.0,74,-99.99,,,-99.99,,2013-02-24 03:21:00,
2013-02-23 19:31:00,53.0,45.0,-100.00,NNE,16,-999.0,-999.0,74,-99.99,,,-99.99,,2013-02-24 03:31:00,
2013-02-23 19:42:00,53.0,45.0,-100.00,NNE,16,-999.0,-999.0,74,-99.99,,,-99.99,,2013-02-24 03:42:00,
2013-02-23 19:52:00,53.0,40.0,-100.00,NE,36,-999.0,-999.0,61,-99.99,,,-99.99,,2013-02-24 03:52:00,
2013-02-23 20:01:00,53.0,40.0,-100.00,NE,36,-999.0,-999.0,61,-99.99,,,-99.99,,2013-02-24 04:01:00,
2013-02-23 20:11:00,53.0,40.0,-100.00,NE,36,-999.0,-999.0,61,-99.99,,,-99.99,,2013-02-24 04:11:00,
2013-02-23 20:21:00,52.0,33.0,-100.00,NE,39,-999.0,-999.0,49,-99.99,,,-99.99,,2013-02-24 04:21:00,
2013-02-23 20:31:00,52.0,33.0,-100.00,NE,39,-999.0,-999.0,49,-99.99,,,-99.99,,2013-02-24 04:31:00,
2013-02-23 20:42:00,52.0,33.0,-100.00,NE,39,-999.0,-999.0,49,-99.99,,,-99.99,,2013-02-24 04:42:00,
2013-02-23 21:21:00,50.0,30.0,-100.00,North,9,-999.0,-999.0,46,-99.99,,,-99.99,,2013-02-24 05:21:00,
2013-02-23 21:32:00,50.0,30.0,-100.00,North,9,-999.0,-999.0,46,-99.99,,,-99.99,,2013-02-24 05:32:00,
2013-02-23 21:42:00,50.0,30.0,-100.00,North,9,-999.0,-999.0,46,-99.99,,,-99.99,,2013-02-24 05:42:00,
2013-02-23 21:52:00,49.0,31.0,-100.00,NE,43,-999.0,-999.0,49,-99.99,,,-99.99,,2013-02-24 05:52:00,
2013-02-23 22:01:00,49.0,31.0,-100.00,NE,43,-999.0,-999.0,49,-99.99,,,-99.99,,2013-02-24 06:01:00,
2013-02-23 22:11:00,49.0,31.0,-100.00,NE,43,-999.0,-999.0,49,-99.99,,,-99.99,,2013-02-24 06:11:00,
2013-02-23 22:21:00,49.0,27.0,-100.00,North,3,-999.0,-999.0,43,-99.99,,,-99.99,,2013-02-24 06:21:00,
2013-02-23 22:31:00,49.0,27.0,-100.00,North,3,-999.0,-999.0,43,-99.99,,,-99.99,,2013-02-24 06:31:00,
2013-02-23 22:42:00,49.0,27.0,-100.00,North,3,-999.0,-999.0,43,-99.99,,,-99.99,,2013-02-24 06:42:00,
2013-02-23 22:52:00,49.0,27.0,-100.00,North,3,-999.0,-999.0,43,-99.99,,,-99.99,,2013-02-24 06:52:00,
2013-02-23 23:01:00,49.0,27.0,-100.00,North,3,-999.0,-999.0,43,-99.99,,,-99.99,,2013-02-24 07:01:00,
2013-02-23 23:22:00,48.0,28.0,-100.00,East,94,-999.0,-999.0,45,-99.99,,,-99.99,,2013-02-24 07:22:00,
2013-02-23 23:32:00,48.0,28.0,-100.00,East,94,-999.0,-999.0,45,-99.99,,,-99.99,,2013-02-24 07:32:00,
2013-02-23 23:42:00,48.0,28.0,-100.00,East,94,-999.0,-999.0,45,-99.99,,,-99.99,,2013-02-24 07:42:00,
2013-02-23 23:52:00,49.0,27.0,-100.00,NNE,23,-999.0,-999.0,43,-99.99,,,-99.99,,2013-02-24 07:52:00,